リニア彗星

C/1998 Y1 ( LINEAR )

English version
Home page
Total 6,336 html files since Dec. 4, 1995
Updated on July 11, 1999

---------------------------------------------------------------------

・ プロフィール

発見日 1998年12月22日
発見光度 18.5等
発見者 Lincoln Laboratory Near-Earth Asteroid Research project

・ 写真集

・ 軌道要素

   The following improved orbital elements by Kenji Muraoka, are
  from 117 observations 1998 Dec. 22 to 1999 Apr. 16, perturbations
  by 9 Planets, Moon and 5 minor planets were taken into account. 
   The mean residual is +/- 0.63 arc seconds.

      Epoch  =  1998 Nov.  3.0  TT       JDT = 2451120.5
          T  =  1998 Nov. 21.57758       +/- 0.00084 (m.e.) TT
       Peri. =  339.84128                +/- 0.00050
       Node  =   98.85877                +/- 0.00062   (2000.0)
       Incl. =   28.10831                +/- 0.00022
          q  =    1.7469867              +/- 0.0004469 AU
          e  =    0.9238893              +/- 0.0000137
          a  =   22.9532341              +/- 0.0041705 AU
          n  =    0.00896269             +/- 0.00000244
          P  =  109.968                  +/- 0.0299710  years
                                        (+/-11.0 days)

・ 星図

・ 光度変化

        m1 = 13.2 + 5 logΔ + 15.0 log r

---------------------------------------------------------------------

軌道要素は村岡健治氏の計算によるものです。
星図は StellaNavigator Ver.2.0 for Windows (アストロアーツ 編著 / アスキー出版局刊) で作成したものです。
光度グラフはComet for Windowsで作成したものです。

---------------------------------------------------------------------

Copyright(C) 1995-2008 Seiichi Yoshida (comet@aerith.net). All rights reserved.